TimeEDT,TemperatureF,Dew PointF,Humidity,Sea Level PressureIn,VisibilityMPH,Wind Direction,Wind SpeedMPH,Gust SpeedMPH,PrecipitationIn,Events,Conditions,WindDirDegrees,DateUTC
12:52 AM,32.0,32.0,100,29.92,10.0,East,3.5,-,N/A,,Clear,90,2012-10-17 04:52:00
1:52 AM,30.9,30.0,96,29.94,10.0,Calm,Calm,-,N/A,,Partly Cloudy,0,2012-10-17 05:52:00
2:09 AM,30.2,30.2,100,29.92,2.5,Calm,Calm,-,N/A,,Mostly Cloudy,0,2012-10-17 06:09:00
2:12 AM,30.2,28.4,93,29.92,1.2,Calm,Calm,-,N/A,,Mostly Cloudy,0,2012-10-17 06:12:00
2:15 AM,30.2,28.4,93,29.92,0.8,Calm,Calm,-,N/A,,Mist,0,2012-10-17 06:15:00
2:52 AM,30.9,30.0,96,29.92,0.8,North,4.6,-,N/A,,Mist,10,2012-10-17 06:52:00
2:54 AM,30.2,30.2,100,29.91,1.2,North,5.8,-,N/A,,Mostly Cloudy,360,2012-10-17 06:54:00
2:56 AM,30.2,30.2,100,29.91,2.5,North,3.5,-,N/A,,Mostly Cloudy,360,2012-10-17 06:56:00
2:59 AM,30.2,30.2,100,29.91,8.0,North,3.5,-,N/A,,Scattered Clouds,360,2012-10-17 06:59:00
3:42 AM,30.2,30.2,100,29.91,4.0,Calm,Calm,-,N/A,,Mostly Cloudy,0,2012-10-17 07:42:00
3:49 AM,30.2,30.2,100,29.92,1.0,Calm,Calm,-,N/A,,Mostly Cloudy,0,2012-10-17 07:49:00
3:52 AM,30.9,30.0,96,29.93,0.8,Calm,Calm,-,N/A,,Overcast,0,2012-10-17 07:52:00
4:02 AM,30.2,30.2,100,29.92,1.0,Calm,Calm,-,N/A,,Mist,0,2012-10-17 08:02:00
4:13 AM,30.2,30.2,100,29.92,0.8,Calm,Calm,-,N/A,,Mist,0,2012-10-17 08:13:00
4:52 AM,30.0,28.9,96,29.94,0.2,Calm,Calm,-,N/A,Fog,Light Freezing Fog,0,2012-10-17 08:52:00
5:52 AM,30.0,30.0,100,29.95,0.2,Calm,Calm,-,N/A,Fog,Light Freezing Fog,0,2012-10-17 09:52:00
6:43 AM,30.2,30.2,100,29.95,1.2,Calm,Calm,-,N/A,,Mostly Cloudy,0,2012-10-17 10:43:00
6:50 AM,30.2,28.4,93,29.95,1.5,Calm,Calm,-,N/A,,Mostly Cloudy,0,2012-10-17 10:50:00
6:52 AM,30.0,28.9,96,29.97,1.2,Calm,Calm,-,N/A,,Mostly Cloudy,0,2012-10-17 10:52:00
7:02 AM,30.2,30.2,100,29.95,1.0,Calm,Calm,-,N/A,,Mist,0,2012-10-17 11:02:00
7:10 AM,30.2,30.2,100,29.95,0.5,Calm,Calm,-,N/A,Fog,Light Freezing Fog,0,2012-10-17 11:10:00
7:52 AM,30.0,28.9,96,29.98,0.5,Calm,Calm,-,N/A,Fog,Light Freezing Fog,0,2012-10-17 11:52:00
7:59 AM,30.2,30.2,100,29.96,1.2,Calm,Calm,-,N/A,,Mostly Cloudy,0,2012-10-17 11:59:00
8:01 AM,30.2,30.2,100,29.96,2.5,Calm,Calm,-,N/A,,Mostly Cloudy,0,2012-10-17 12:01:00
8:05 AM,30.2,30.2,100,29.97,1.2,Calm,Calm,-,N/A,,Mostly Cloudy,0,2012-10-17 12:05:00
8:12 AM,30.2,30.2,100,29.97,0.2,Calm,Calm,-,N/A,Fog,Light Freezing Fog,0,2012-10-17 12:12:00
8:33 AM,32.0,32.0,100,29.97,1.5,Calm,Calm,-,N/A,,Mostly Cloudy,0,2012-10-17 12:33:00
8:35 AM,32.0,32.0,100,29.97,3.0,Calm,Calm,-,N/A,,Mostly Cloudy,0,2012-10-17 12:35:00
8:47 AM,33.8,33.8,100,29.98,10.0,Calm,Calm,-,N/A,,Scattered Clouds,0,2012-10-17 12:47:00
8:52 AM,33.1,33.1,100,30.00,10.0,Calm,Calm,-,N/A,,Partly Cloudy,0,2012-10-17 12:52:00
9:52 AM,42.1,36.0,79,30.00,10.0,Calm,Calm,-,N/A,,Clear,0,2012-10-17 13:52:00
10:52 AM,48.0,35.1,61,29.99,10.0,Calm,Calm,-,N/A,,Clear,0,2012-10-17 14:52:00
11:52 AM,52.0,34.0,50,29.98,10.0,Calm,Calm,-,N/A,,Clear,0,2012-10-17 15:52:00
12:52 PM,55.0,30.0,38,29.96,10.0,Calm,Calm,-,N/A,,Clear,0,2012-10-17 16:52:00
1:52 PM,57.9,32.0,37,29.93,10.0,Calm,Calm,-,N/A,,Clear,0,2012-10-17 17:52:00
2:52 PM,60.1,32.0,35,29.93,10.0,WNW,4.6,-,N/A,,Clear,300,2012-10-17 18:52:00
3:52 PM,60.1,30.0,32,29.93,10.0,Calm,Calm,-,N/A,,Clear,0,2012-10-17 19:52:00
4:52 PM,59.0,36.0,42,29.94,10.0,SSW,5.8,-,N/A,,Clear,200,2012-10-17 20:52:00
5:52 PM,53.1,41.0,64,29.96,10.0,SSW,3.5,-,N/A,,Clear,210,2012-10-17 21:52:00
6:52 PM,46.9,42.1,83,29.98,10.0,Calm,Calm,-,N/A,,Clear,0,2012-10-17 22:52:00
7:52 PM,44.1,39.9,85,30.00,10.0,Calm,Calm,-,N/A,,Clear,0,2012-10-17 23:52:00
8:52 PM,42.1,39.0,89,30.01,10.0,Calm,Calm,-,N/A,,Clear,0,2012-10-18 00:52:00
9:52 PM,39.9,37.9,93,30.01,10.0,Calm,Calm,-,N/A,,Clear,0,2012-10-18 01:52:00
10:52 PM,39.0,37.9,96,30.01,10.0,Calm,Calm,-,N/A,,Clear,0,2012-10-18 02:52:00
11:52 PM,39.0,37.0,93,30.02,10.0,Calm,Calm,-,N/A,,Clear,0,2012-10-18 03:52:00